Content
SEND FEEDBACK

Daily
Averages
Monthly
Summary
India

AMRITSAR, INDIA


Home > Asia > India
Elevation: 752 feet     Latitude: 31 42N     Longitude: 074 47E

WEATHER
 
SELECT A DAY
Number of Records: 129,435;   Date Range: 7/1/96 - 10/23/14
 
SHARE

PRINT THIS DATA

[ ← Previous Day ]
WEATHER ALMANAC - MARCH 8, 2013
[ Next Day → ]
[ °C ]   °F
Weather ElementAverageHighLow
Temperature63.3 °F84.2 °F (2:00 pm) (12:30 am)
Dewpoint55 °F66.2 °F (9:30 am) (7:00 pm)
Humidity74.4 %100 % (3:00 am)47 % (2:30 pm)
Barometer29.98 in30.06 in (9:30 am)29.91 in (5:30 pm)
Wind Speed1.5 mph8.1 mph (3:00 pm)
Weather ElementAverage
Visibility1.7 mi
Wind DirectionNE (40.8 °)

Weather ElementTotal
Precipitation---
Heating Degree Days22.9 (Base 65)
Averaged from 42 records on March 8, 2013
WEATHER CONDITIONS BREAKOUT
WIND DIRECTION BREAKOUT
WEATHER BY HOUR - MARCH 8, 2013
[ °C ]   °F
Local TimeTemperatureDewpointHumidityBarometerVisibilityWind DirectionWind SpeedGust SpeedPrecipitationEventsConditions
12:30 AM0.0 °F0.0 °F30.01 in1.0 miCalmMist
1:00 AM0.0 °F0.0 °F30.01 in1.0 miCalmMist
1:30 AM0.0 °F0.0 °F29.98 in1.0 miENE (70°)3.5 mphMist
2:00 AM0.0 °F0.0 °F29.98 in1.0 miCalmMist
2:30 AM0.0 °F0.0 °F29.98 in0.6 miCalmMist
2:30 AM61.0 °F61.0 °F99 %29.97 in1.0 miCalmMist
3:00 AM59.0 °F59.0 °F100 %29.98 in0.5 miCalmFogFog
3:30 AM59.0 °F59.0 °F100 %29.95 in0.5 miCalmFogFog
4:00 AM57.2 °F57.2 °F100 %29.95 in0.5 miCalmFogFog
5:00 AM55.4 °F55.4 °F100 %29.95 inCalmFogFog
7:00 AM53.6 °F53.6 °F100 %29.98 in0.2 miCalmFogFog
8:00 AM55.4 °F55.4 °F100 %30.01 in0.0 miNE (50°)5.8 mphFogFog
8:30 AM56.0 °F56.0 °F100 %30.03 in0.0 miNE (50°)2.3 mphFogPartial Fog
8:30 AM57.2 °F57.2 °F100 %30.04 in0.0 miVariable2.3 mphFogFog
9:30 AM66.2 °F66.2 °F100 %30.06 in1.2 miCalmMist
10:00 AM71.6 °F66.2 °F83 %30.06 in1.9 miCalmMist
10:30 AM75.2 °F66.2 °F73 %30.06 in2.2 miCalmMist
11:00 AM77.0 °F66.2 °F69 %30.06 in2.5 miCalmHaze
11:30 AM80.6 °F66.2 °F61 %30.06 in2.8 miCalmHaze
12:00 PM78.8 °F66.2 °F65 %30.04 in2.8 miCalmHaze
12:30 PM80.6 °F66.2 °F61 %30.04 in2.5 miCalmHaze
1:00 PM80.6 °F66.2 °F61 %30.04 in2.5 miVariable2.3 mphHaze
1:30 PM82.4 °F66.2 °F58 %30.01 in2.5 miCalmHaze
2:00 PM84.2 °F66.2 °F55 %30.01 in2.8 miVariable2.3 mphHaze
2:30 PM83.0 °F66.0 °F47 %29.96 in2.0 miSouth (180°)6.9 mphHaze
2:30 PM82.4 °F66.2 °F58 %29.98 in2.8 miSouth (180°)6.9 mphHaze
3:00 PM82.4 °F64.4 °F54 %29.98 in2.8 miSW (220°)8.1 mphHaze
3:30 PM82.4 °F64.4 °F54 %29.98 in2.8 miSW (230°)8.1 mphHaze
4:00 PM82.4 °F64.4 °F54 %29.95 in2.8 miSW (230°)6.9 mphHaze
4:30 PM82.4 °F62.6 °F51 %29.95 in2.8 miSW (220°)5.8 mphHaze
5:00 PM80.6 °F62.6 °F54 %29.95 in2.8 miSSW (200°)3.5 mphHaze
5:30 PM80.6 °F62.6 °F54 %29.95 in2.8 miCalmHaze
5:30 PM80.0 °F63.0 °F47 %29.91 in2.0 miCalmHaze
6:00 PM78.8 °F62.6 °F57 %29.92 in2.8 miCalmHaze
6:30 PM77.0 °F60.8 °F57 %29.92 in2.5 miCalmHaze
7:00 PM73.4 °F60.8 °F65 %29.92 in2.2 miCalmHaze
7:30 PM71.6 °F60.8 °F69 %29.92 in2.2 miCalmHaze
8:00 PM71.6 °F60.8 °F69 %29.95 in2.2 miCalmHaze
9:00 PM66.2 °F62.6 °F88 %29.95 in1.2 miCalmHaze
9:30 PM64.4 °F62.6 °F94 %29.95 in1.2 miCalmMist
10:30 PM64.4 °F62.6 °F94 %29.95 in0.6 miCalmMist
11:00 PM64.4 °F64.4 °F100 %29.95 in0.6 miCalmMist
Hourly data recorded from VIAR, located miles away from Amritsar, India







STORIES FROM OUR PARTNERS